GW5679 Weather Reports


Display with metric or nautical units.
time (UTC)temp
F
wind
direction
speed
MPH
gust
MPH
rain 1hr
in
rain 24hr
in
rain mn
in
humidity
%
barometer
mb
20260505124648 74 140 6.0 9.0 0.00 0.00 0.00 87 1008.2
20260505124145 74 140 6.0 9.0 0.00 0.00 0.00 87 1007.9
20260505123641 74 140 6.0 9.0 0.00 0.00 0.00 87 1008.1
20260505123138 74 140 6.0 9.0 0.00 0.00 0.00 87 1008.0
20260505122634 74 186 3.0 4.0 0.00 0.00 0.00 87 1007.8
20260505122132 74 157 6.0 7.0 0.00 0.00 0.00 87 1007.6
20260505121628 74 195 7.0 8.0 0.00 0.00 0.00 87 1007.4
20260505121125 74 195 7.0 8.0 0.00 0.00 0.00 87 1007.3
20260505120621 74 158 5.0 8.0 0.00 0.00 0.00 87 1007.3
20260505120117 74 158 5.0 8.0 0.00 0.00 0.00 87 1007.1
20260505115611 74 187 6.0 7.0 0.00 0.00 0.00 87 1007.5
20260505115109 74 138 4.0 4.0 0.00 0.00 0.00 87 1007.7
20260505114606 74 183 2.0 3.0 0.00 0.00 0.00 87 1007.7
20260505114102 73 210 3.0 4.0 0.00 0.00 0.00 87 1007.9
20260505113559 73 210 3.0 4.0 0.00 0.00 0.00 87 1007.9
20260505113055 73 210 3.0 4.0 0.00 0.00 0.00 87 1007.6
20260505112551 73 210 3.0 4.0 0.00 0.00 0.00 87 1007.4
20260505112050 73 210 3.0 4.0 0.00 0.00 0.00 87 1007.6
20260505111544 73 152 4.0 6.0 0.00 0.00 0.00 87 1007.4
20260505111040 73 172 6.0 8.0 0.00 0.00 0.00 87 1007.4
20260505110537 73 185 5.0 9.0 0.00 0.00 0.00 87 1007.4
20260505102009 73 153 4.0 6.0 0.00 0.00 0.00 87 1007.5
20260505101508 73 174 4.0 7.0 0.00 0.00 0.00 87 1007.5
20260505101004 73 192 2.0 3.0 0.00 0.00 0.00 87 1007.6
20260505100501 73 205 4.0 9.0 0.00 0.00 0.00 87 1007.8
20260505095957 73 176 4.0 7.0 0.00 0.00 0.00 87 1007.7
20260505095453 73 171 3.0 4.0 0.00 0.00 0.00 87 1007.7
20260505094950 73 165 4.0 6.0 0.00 0.00 0.00 87 1007.4
20260505094447 72 178 4.0 7.0 0.00 0.00 0.00 87 1007.4
20260505093943 72 158 7.0 9.0 0.00 0.00 0.00 87 1007.6
20260505093440 72 147 2.0 4.0 0.00 0.00 0.00 87 1007.6
20260505092937 72 176 5.0 7.0 0.00 0.00 0.00 87 1007.6
20260505092434 72 186 6.0 7.0 0.00 0.00 0.00 87 1007.7
20260505091932 72 187 4.0 7.0 0.00 0.00 0.00 87 1007.9
20260505091429 72 151 3.0 7.0 0.00 0.00 0.00 86 1007.9
20260505090927 72 174 4.0 6.0 0.00 0.00 0.00 86 1008.0
20260505090425 72 156 4.0 8.0 0.00 0.00 0.00 86 1007.6
20260505085922 72 175 3.0 6.0 0.00 0.00 0.00 86 1007.8
20260505085420 72 182 4.0 7.0 0.00 0.00 0.00 86 1008.0
20260505084918 72 149 4.0 6.0 0.00 0.00 0.00 86 1008.0
20260505084416 72 142 3.0 4.0 0.00 0.00 0.00 86 1008.0
20260505083914 72 168 4.0 6.0 0.00 0.00 0.00 86 1007.9
20260505083411 72 180 1.0 4.0 0.00 0.00 0.00 86 1008.1
20260505082907 72 177 5.0 7.0 0.00 0.00 0.00 86 1008.0
20260505082403 72 185 3.0 8.0 0.00 0.00 0.00 86 1008.1
20260505081900 72 161 4.0 6.0 0.00 0.00 0.00 86 1008.2
20260505081356 72 169 2.0 4.0 0.00 0.00 0.00 86 1008.3
20260505080853 72 183 3.0 7.0 0.00 0.00 0.00 86 1008.1
20260505080349 72 172 5.0 7.0 0.00 0.00 0.00 86 1008.2
20260505075845 72 192 4.0 8.0 0.00 0.00 0.00 86 1008.2
20260505075342 72 155 4.0 7.0 0.00 0.00 0.00 85 1008.4
20260505074839 72 174 3.0 4.0 0.00 0.00 0.00 85 1008.3
20260505074336 72 194 5.0 6.0 0.00 0.00 0.00 85 1008.3
20260505073834 72 142 5.0 6.0 0.00 0.00 0.00 85 1008.2
20260505073331 72 199 3.0 7.0 0.00 0.00 0.00 85 1008.5
20260505072828 71 197 4.0 8.0 0.00 0.00 0.00 85 1008.4
20260505072324 71 208 4.0 8.0 0.00 0.00 0.00 85 1008.3
20260505071820 71 184 7.0 9.0 0.00 0.00 0.00 85 1008.4
20260505071317 71 177 4.0 8.0 0.00 0.00 0.00 85 1008.7
20260505070815 71 165 5.0 8.0 0.00 0.00 0.00 85 1008.6
20260505070311 71 192 6.0 8.0 0.00 0.00 0.00 84 1008.6
20260505065806 71 154 5.0 8.0 0.00 0.00 0.00 84 1008.8
20260505065304 71 157 2.0 3.0 0.00 0.00 0.00 84 1008.5
20260505064801 71 139 5.0 7.0 0.00 0.00 0.00 84 1008.9
20260505064258 71 167 2.0 4.0 0.00 0.00 0.00 84 1008.8
20260505063755 71 122 3.0 6.0 0.00 0.00 0.00 83 1008.9
20260505063252 71 169 4.0 7.0 0.00 0.00 0.00 83 1009.1
20260505062748 71 190 4.0 7.0 0.00 0.00 0.00 83 1009.3
20260505062246 71 162 4.0 6.0 0.00 0.00 0.00 83 1009.2
20260505061743 71 143 5.0 7.0 0.00 0.00 0.00 83 1009.4
20260505061241 71 180 2.0 4.0 0.00 0.00 0.00 82 1009.5
20260505060738 71 153 3.0 6.0 0.00 0.00 0.00 82 1009.3
20260505060235 71 161 2.0 6.0 0.00 0.00 0.00 82 1009.3
20260505055730 71 195 5.0 8.0 0.00 0.00 0.00 82 1009.3
20260505055227 71 171 4.0 7.0 0.00 0.00 0.00 82 1009.5
20260505054724 71 176 4.0 6.0 0.00 0.00 0.00 82 1009.2
20260505054222 71 198 5.0 9.0 0.00 0.00 0.00 81 1009.3
20260505053720 71 140 6.0 8.0 0.00 0.00 0.00 81 1009.5
20260505053216 71 175 4.0 6.0 0.00 0.00 0.00 81 1009.7
20260505052713 71 154 3.0 6.0 0.00 0.00 0.00 81 1009.6
20260505052210 72 181 4.0 7.0 0.00 0.00 0.00 81 1009.6
20260505051707 72 149 4.0 7.0 0.00 0.00 0.00 80 1009.7
20260505051205 72 171 4.0 6.0 0.00 0.00 0.00 80 1009.8
20260505050703 72 149 4.0 9.0 0.00 0.00 0.00 80 1009.7
20260505050201 72 201 4.0 6.0 0.00 0.00 0.00 80 1009.9
20260505041631 73 185 6.0 10.0 0.00 0.00 0.00 77 1009.6
20260505041128 73 146 6.0 8.0 0.00 0.00 0.00 77 1009.7
20260505040625 73 159 6.0 8.0 0.00 0.00 0.00 77 1010.1
20260505040122 73 171 6.0 8.0 0.00 0.00 0.00 76 1010.0
20260505035618 73 170 5.0 9.0 0.00 0.00 0.00 76 1009.8
20260505035115 73 189 4.0 8.0 0.00 0.00 0.00 76 1010.1
20260505034611 73 165 5.0 8.0 0.00 0.00 0.00 75 1010.2
20260505034108 73 142 6.0 10.0 0.00 0.00 0.00 75 1010.2
20260505033605 73 139 8.0 10.0 0.00 0.00 0.00 75 1010.2
20260505033103 74 179 4.0 11.0 0.00 0.00 0.00 74 1010.3
20260505032601 74 119 6.0 10.0 0.00 0.00 0.00 74 1010.2
20260505032057 74 207 6.0 13.0 0.00 0.00 0.00 74 1010.2
20260505031555 74 173 10.0 13.0 0.00 0.00 0.00 74 1010.2
20260505031050 74 175 9.0 13.0 0.00 0.00 0.00 73 1010.1
20260505030548 74 161 7.0 15.0 0.00 0.00 0.00 73 1010.0
20260505030044 74 147 7.0 15.0 0.00 0.00 0.00 73 1010.0
20260505025539 74 178 7.0 9.0 0.00 0.00 0.00 73 1010.2
20260505025039 74 185 6.0 10.0 0.00 0.00 0.00 73 1010.3
20260505024535 74 143 5.0 9.0 0.00 0.00 0.00 73 1010.2
20260505024032 74 160 6.0 10.0 0.00 0.00 0.00 73 1010.1
20260505023529 74 140 6.0 9.0 0.00 0.00 0.00 73 1010.1
20260505023027 74 169 6.0 11.0 0.00 0.00 0.00 73 1010.1
20260505022524 75 196 4.0 9.0 0.00 0.00 0.00 73 1009.9
20260505022022 74 166 6.0 9.0 0.00 0.00 0.00 73 1009.9
20260505021518 75 156 8.0 13.0 0.00 0.00 0.00 73 1010.0
20260505021014 75 157 6.0 10.0 0.00 0.00 0.00 73 1010.0
20260505020509 75 155 7.0 11.0 0.00 0.00 0.00 72 1009.9
20260505020006 75 160 6.0 14.0 0.00 0.00 0.00 72 1009.8
20260505015503 75 149 7.0 11.0 0.00 0.00 0.00 72 1009.8
20260505015000 75 133 9.0 11.0 0.00 0.00 0.00 72 1009.9
20260505014457 75 186 6.0 11.0 0.00 0.00 0.00 71 1009.7
20260505013954 75 148 8.0 13.0 0.00 0.00 0.00 71 1009.7
20260505013451 75 137 8.0 10.0 0.00 0.00 0.00 71 1009.7
20260505012948 75 201 6.0 11.0 0.00 0.00 0.00 71 1009.6
20260505012447 75 140 8.0 11.0 0.00 0.00 0.00 70 1009.4
20260505011943 76 151 5.0 8.0 0.00 0.00 0.00 69 1009.5
20260505011439 76 182 7.0 9.0 0.00 0.00 0.00 69 1009.8
20260505010936 76 139 5.0 13.0 0.00 0.00 0.00 69 1009.5
20260505010432 76 178 6.0 11.0 0.00 0.00 0.00 69 1009.4
20260505005928 76 168 9.0 15.0 0.00 0.00 0.00 68 1009.5
20260505005425 76 141 5.0 10.0 0.00 0.00 0.00 68 1009.5
20260505004923 77 203 10.0 14.0 0.00 0.00 0.00 67 1009.6
20260505004419 77 168 10.0 13.0 0.00 0.00 0.00 67 1009.3
20260505003916 77 262 8.0 10.0 0.00 0.00 0.00 66 1009.2
20260505003413 77 143 6.0 14.0 0.00 0.00 0.00 66 1009.2
20260505002909 77 164 4.0 9.0 0.00 0.00 0.00 66 1009.2
20260505002406 78 178 10.0 13.0 0.00 0.00 0.00 65 1009.4
20260505001904 78 199 6.0 14.0 0.00 0.00 0.00 65 1009.3
20260505001401 78 162 10.0 11.0 0.00 0.00 0.00 64 1009.2
20260505000858 78 182 7.0 14.0 0.00 0.00 0.00 64 1009.3
20260505000358 78 166 10.0 11.0 0.00 0.00 0.00 63 1009.5
20260504235852 79 178 7.0 11.0 0.00 0.00 0.00 63 1009.3
20260504235349 79 170 6.0 9.0 0.00 0.00 0.00 63 1009.5
20260504234846 78 165 8.0 11.0 0.00 0.00 0.00 63 1009.3
20260504234344 78 188 9.0 13.0 0.00 0.00 0.00 63 1009.5
20260504233840 78 182 10.0 13.0 0.00 0.00 0.00 63 1009.7
20260504233336 78 149 9.0 13.0 0.00 0.00 0.00 63 1009.7
20260504232833 78 188 6.0 11.0 0.00 0.00 0.00 63 1009.7
20260504232330 79 136 10.0 11.0 0.00 0.00 0.00 63 1009.8
20260504231826 79 177 7.0 13.0 0.00 0.00 0.00 63 1009.9
20260504231323 79 140 7.0 14.0 0.00 0.00 0.00 62 1009.8
20260504230819 79 160 8.0 10.0 0.00 0.00 0.00 62 1009.9
20260504230317 79 189 9.0 13.0 0.00 0.00 0.00 62 1009.9
20260504225816 79 172 7.0 13.0 0.00 0.00 0.00 62 1010.0
20260504225312 79 185 8.0 14.0 0.00 0.00 0.00 61 1010.0
20260504224809 80 180 9.0 14.0 0.00 0.00 0.00 60 1010.0
20260504224306 80 207 6.0 10.0 0.00 0.00 0.00 60 1010.0
20260504223802 80 153 9.0 11.0 0.00 0.00 0.00 59 1010.2
20260504223258 79 184 5.0 7.0 0.00 0.00 0.00 59 1009.9
20260504222755 79 196 8.0 14.0 0.00 0.00 0.00 59 1010.2
20260504222252 80 187 11.0 15.0 0.00 0.00 0.00 59 1010.3
20260504221750 80 177 9.0 13.0 0.00 0.00 0.00 59 1010.3
20260504221247 80 171 3.0 9.0 0.00 0.00 0.00 59 1010.5
20260504220743 80 147 8.0 11.0 0.00 0.00 0.00 58 1010.4
20260504220240 80 184 7.0 13.0 0.00 0.00 0.00 58 1010.5
20260504215738 81 202 7.0 9.0 0.00 0.00 0.00 57 1010.5
20260504215234 80 183 4.0 11.0 0.00 0.00 0.00 58 1010.5
20260504214730 80 191 8.0 15.0 0.00 0.00 0.00 57 1010.7
20260504214227 81 173 6.0 11.0 0.00 0.00 0.00 56 1010.6
20260504213723 80 177 10.0 14.0 0.00 0.00 0.00 56 1010.8
20260504213220 81 202 7.0 9.0 0.00 0.00 0.00 55 1010.7
20260504212717 82 136 7.0 9.0 0.00 0.00 0.00 54 1010.6
20260504212214 82 169 7.0 10.0 0.00 0.00 0.00 54 1010.8
20260504211711 82 223 5.0 13.0 0.00 0.00 0.00 54 1010.7
20260504211207 82 191 6.0 8.0 0.00 0.00 0.00 53 1010.9
20260504210705 82 216 8.0 10.0 0.00 0.00 0.00 53 1010.8
20260504210201 83 197 7.0 14.0 0.00 0.00 0.00 52 1010.9
20260504205658 83 162 5.0 8.0 0.00 0.00 0.00 51 1011.2
20260504205155 83 148 4.0 10.0 0.00 0.00 0.00 51 1011.4
20260504204654 82 161 4.0 8.0 0.00 0.00 0.00 52 1011.3
20260504204153 83 173 9.0 15.0 0.00 0.00 0.00 50 1011.3
20260504203651 82 152 3.0 8.0 0.00 0.00 0.00 51 1011.2
20260504203148 83 181 7.0 13.0 0.00 0.00 0.00 51 1011.3
20260504202643 83 198 2.0 6.0 0.00 0.00 0.00 52 1011.4
20260504202140 83 207 9.0 9.0 0.00 0.00 0.00 49 1011.4
20260504201637 83 187 11.0 13.0 0.00 0.00 0.00 50 1011.8
20260504201135 83 152 8.0 16.0 0.00 0.00 0.00 50 1011.7
20260504200631 85 225 6.0 11.0 0.00 0.00 0.00 48 1011.7
20260504200128 83 170 3.0 9.0 0.00 0.00 0.00 50 1011.8
20260504195624 83 220 5.0 6.0 0.00 0.00 0.00 50 1011.9
20260504195120 82 184 8.0 13.0 0.00 0.00 0.00 50 1011.8
20260504194617 83 221 3.0 8.0 0.00 0.00 0.00 50 1012.1
20260504194113 83 194 7.0 11.0 0.00 0.00 0.00 50 1012.2
20260504193609 83 172 3.0 9.0 0.00 0.00 0.00 50 1011.9
20260504193108 84 184 4.0 9.0 0.00 0.00 0.00 47 1012.0
20260504192606 83 181 6.0 10.0 0.00 0.00 0.00 49 1012.1
20260504192104 83 166 8.0 10.0 0.00 0.00 0.00 49 1012.3
20260504191602 84 220 3.0 7.0 0.00 0.00 0.00 49 1012.6
20260504191057 83 165 5.0 6.0 0.00 0.00 0.00 48 1012.4
20260504190554 82 209 6.0 10.0 0.00 0.00 0.00 50 1012.5
20260504190050 83 212 9.0 10.0 0.00 0.00 0.00 49 1012.5
20260504185547 83 213 6.0 10.0 0.00 0.00 0.00 48 1012.5
20260504185044 82 164 6.0 8.0 0.00 0.00 0.00 49 1012.7
20260504184539 82 184 4.0 11.0 0.00 0.00 0.00 50 1012.7
20260504184035 83 183 7.0 9.0 0.00 0.00 0.00 48 1012.8
20260504183532 82 225 7.0 11.0 0.00 0.00 0.00 49 1012.7
20260504183030 82 140 11.0 13.0 0.00 0.00 0.00 49 1012.6
20260504182527 82 144 6.0 15.0 0.00 0.00 0.00 50 1012.9
20260504182024 82 243 4.0 11.0 0.00 0.00 0.00 49 1012.8
20260504181521 82 159 4.0 11.0 0.00 0.00 0.00 49 1012.8
20260504181020 82 193 4.0 8.0 0.00 0.00 0.00 49 1013.1
20260504180518 83 202 7.0 9.0 0.00 0.00 0.00 47 1013.1
20260504180017 83 193 2.0 7.0 0.00 0.00 0.00 48 1013.3
20260504175513 82 223 8.0 11.0 0.00 0.00 0.00 49 1013.4
20260504175010 82 207 6.0 14.0 0.00 0.00 0.00 49 1013.3
20260504174508 82 156 8.0 13.0 0.00 0.00 0.00 49 1013.2
20260504174005 82 168 4.0 8.0 0.00 0.00 0.00 49 1013.6
20260504173501 82 218 5.0 8.0 0.00 0.00 0.00 49 1013.4
20260504172959 80 192 4.0 7.0 0.00 0.00 0.00 52 1013.5
20260504172454 80 191 4.0 11.0 0.00 0.00 0.00 51 1013.6
20260504171951 80 199 6.0 14.0 0.00 0.00 0.00 52 1013.7
20260504171449 79 229 4.0 9.0 0.00 0.00 0.00 53 1013.7
20260504170945 80 168 4.0 10.0 0.00 0.00 0.00 51 1013.8
20260504170441 80 122 8.0 13.0 0.00 0.00 0.00 50 1014.1
20260504160401 78 191 10.0 13.0 0.00 0.00 0.00 56 1015.0
20260504150825 75 148 6.0 8.0 0.00 0.00 0.00 60 1014.9
20260504150322 75 122 9.0 14.0 0.00 0.00 0.00 60 1014.8
20260504141252 73 164 4.0 7.0 0.00 0.00 0.00 60 1015.0
20260504140749 72 127 5.0 9.0 0.00 0.00 0.00 60 1015.0
20260504140244 72 144 5.0 9.0 0.00 0.00 0.00 60 1014.8
20260504130713 68 110 2.0 4.0 0.00 0.00 0.00 66 1014.7
20260504130209 67 152 4.0 6.0 0.00 0.00 0.00 66 1014.8